Printer-friendly version

IAU Minor Planet Center

Minor Planet Center

MPEC 2006-M29 : 2006 MF10

The following Minor Planet Electronic Circular may be linked-to from your own Web pages, but must not otherwise be redistributed electronically.


Read MPEC 2006-M28 Read MPEC 2006-M30


M.P.E.C. 2006-M29                                Issued 2006 June 22, 23:36 UT

     The Minor Planet Electronic Circulars contain information on unusual
         minor planets and routine data on comets.  They are published
   on behalf of Commission 20 of the International Astronomical Union by the
          Minor Planet Center, Smithsonian Astrophysical Observatory,
                          Cambridge, MA 02138, U.S.A.

                  Supported in part by the Brinson Foundation
                  Supported in part by the TABASGO Foundation
             Prepared using the Tamkin Foundation Computer Network

                              MPC@CFA.HARVARD.EDU
          URL http://cfa-www.harvard.edu/iau/mpc.html  ISSN 1523-6714

                                   2006 MF10

Observations:
     K06M10F  C2006 06 11.40588 20 43 38.17 -07 47 54.8          19.1 R EM029644
     K06M10F  C2006 06 11.42748 20 43 40.12 -07 47 40.2          19.1 R EM029644
     K06M10F  C2006 06 11.44791 20 43 41.96 -07 47 26.1          19.3 R EM029644
     K06M10F* C2006 06 20.34816 20 56 06.08 -06 20 16.5          19.4 R EM029644
     K06M10F  C2006 06 20.37089 20 56 07.48 -06 20 05.6          19.2 R EM029644
     K06M10F  C2006 06 20.39630 20 56 09.02 -06 19 53.4          18.8 R EM029644
     K06M10F  C2006 06 22.37013 20 58 17.02 -06 04 44.7          19.0 R EM029644
     K06M10F  C2006 06 22.39184 20 58 18.19 -06 04 34.9          18.9 R EM029644
     K06M10F  C2006 06 22.41474 20 58 19.41 -06 04 25.2          18.9 R EM029644

Observer details:
644 Palomar Mountain/NEAT.  Observers M. Brown, R. Bambery, K. Lawrence,
    M. Hicks, E. Helin, R. Thicksten.  1.2-m Schmidt + CCD.

Orbital elements:
2006 MF10                                                Earth MOID = 0.2735 AU
Epoch 2006 Mar. 6.0 TT = JDT 2453800.5                  MPC
M 336.21799              (2000.0)            P               Q
n   0.28987771     Peri.   63.94833     -0.15421577     +0.98791024
a   2.2611333      Node   197.20246     -0.92456934     -0.14994376
e   0.4325740      Incl.    3.06992     -0.34840930     -0.03937304
P   3.40           H   19.5           G   0.15           U   9
Residuals in seconds of arc
060611 644  0.1+  0.1-    060620 644  0.1-  0.1+    060622 644  0.0   0.4-
060611 644  0.0   0.1-    060620 644  0.0   0.1+    060622 644  0.1+  0.1+
060611 644  0.2-  0.2+    060620 644  0.1-  0.1+    060622 644  0.0   0.1-

Ephemeris:
2006 MF10                a,e,i = 2.27, 0.43, 3                   q = 1.2834
Date    TT    R. A. (2000) Decl.     Delta      r     Elong.  Phase     V
2006 06 14    20 47.70   -07 19.3    0.385    1.296   129.7    37.1    19.5
2006 06 24    20 59.86   -05 53.3    0.378    1.313   135.6    32.8    19.4
2006 07 04    21 06.38   -05 10.6    0.378    1.338   142.9    27.3    19.2
2006 07 14    21 07.93   -05 14.0    0.386    1.368   151.6    20.7    19.1
2006 07 24    21 05.77   -05 58.7    0.404    1.404   160.9    13.7    19.1
2006 08 03    21 01.78   -07 12.9    0.435    1.444   169.3     7.5    19.0
2006 08 13    20 58.09   -08 38.9    0.481    1.489   170.1     6.7    19.3
2006 08 23    20 56.20   -10 01.6    0.542    1.537   162.5    11.4    19.8
2006 09 02    20 57.06   -11 10.0    0.618    1.587   153.6    16.4    20.3
2006 09 12    21 00.90   -11 58.4    0.710    1.639   144.9    20.7    20.8
2006 09 22    21 07.46   -12 25.8    0.815    1.692   136.7    24.0    21.3
2006 10 02    21 16.37   -12 32.8    0.934    1.746   129.0    26.5    21.8

Timothy B. Spahr             (C) Copyright 2006 MPC           M.P.E.C. 2006-M29

Read MPEC 2006-M28 Read MPEC 2006-M30


Our Web policy. Index to the CBAT/MPC/ICQ pages.


Valid HTML 4.01!